Location: Baili�vre
(50.0696°N, 4.2409°E)
Time: 05:35:05
(UTC+00:00)

BREEZE-M DEB (TANK) - Pass Details

Date: 08 August 2020
Orbit: 320 x 16291 km, 49.4° (Epoch: 19 September)

Event Time Altitude Azimuth Distance (km) Brightness Sun altitude
Rises 20:41:59 0° 255° (WSW) 2,131 5.8 -12.4°
Reaches altitude 10° 20:43:21 10° 253° (WSW) 1,438 4.8 -12.6°
Maximum altitude 20:46:00 75° 168° (SSE) 609 2.4 -12.9°
Drops below altitude 10° 20:52:59 10° 83° (E) 3,678 6.1 -13.7°
Sets 20:58:50 0° 83° (E) 6,302 7.3 -14.3°
